FW4030 Weather Reports


Display with metric or nautical units.
time (UTC)temp
F
wind
direction
speed
MPH
gust
MPH
rain 1hr
in
rain 24hr
in
rain mn
in
humidity
%
barometer
mb
20260509142918 73 180 0.0 2.0 0.00 0.00 0.00 37 1027.1
20260509142815 73 180 2.0 3.0 0.00 0.00 0.00 37 1027.1
20260509141815 74 180 5.0 8.0 0.00 0.00 0.00 39 1027.1
20260509133916 74 180 5.0 7.0 0.00 0.00 0.00 39 1027.7
20260509132917 74 175 4.0 6.0 0.00 0.00 0.00 39 1027.7
20260509131915 73 90 0.0 2.0 0.00 0.00 0.00 42 1027.9
20260509131816 73 141 1.0 3.0 0.00 0.00 0.00 41 1027.9
20260509130815 71 180 1.0 4.0 0.00 0.00 0.00 45 1028.1
20260509125815 68 124 1.0 2.0 0.00 0.00 0.00 45 1028.2
20260509123915 71 166 5.0 7.0 0.00 0.00 0.00 41 1028.3
20260509122914 72 153 2.0 4.0 0.00 0.00 0.00 43 1028.3
20260509122815 72 180 3.0 5.0 0.00 0.00 0.00 43 1028.4
20260509121913 69 122 0.0 1.0 0.00 0.00 0.00 45 1028.4
20260509120013 73 129 1.0 2.0 0.00 0.00 0.00 45 1028.7
20260509115917 73 115 2.0 4.0 0.00 0.00 0.00 46 1028.6
20260509115815 72 129 1.0 3.0 0.00 0.00 0.00 46 1028.6
20260509114913 70 180 1.0 4.0 0.00 0.00 0.00 47 1028.7
20260509113917 69 180 4.0 6.0 0.00 0.00 0.00 46 1029.0
20260509113816 69 180 2.0 4.0 0.00 0.00 0.00 46 1029.0
20260509112816 68 180 2.0 3.0 0.00 0.00 0.00 50 1029.1
20260509111815 65 180 3.0 6.0 0.00 0.00 0.00 50 1029.2
20260509111714 65 180 2.0 4.0 0.00 0.00 0.00 50 1029.2
20260509110715 62 161 3.0 6.0 0.00 0.00 0.00 52 1029.4
20260509105815 63 119 1.0 3.0 0.00 0.00 0.00 53 1029.4
20260509105714 63 137 3.0 6.0 0.00 0.00 0.00 53 1029.4
20260509105615 63 180 1.0 3.0 0.00 0.00 0.00 53 1029.5
20260509104615 63 174 4.0 7.0 0.00 0.00 0.00 53 1029.5
20260509103714 64 180 2.0 4.0 0.00 0.00 0.00 52 1029.5
20260509102716 64 90 2.0 3.0 0.00 0.00 0.00 52 1029.6
20260509100715 67 161 3.0 5.0 0.00 0.00 0.00 51 1029.5
20260509100615 67 180 3.0 6.0 0.00 0.00 0.00 51 1029.7
20260509095713 68 180 4.0 5.0 0.00 0.00 0.00 52 1029.6
20260509094717 69 180 1.0 2.0 0.00 0.00 0.00 52 1029.5
20260509092714 70 178 4.0 6.0 0.00 0.00 0.00 54 1029.6
20260509091715 70 144 0.0 0.0 0.00 0.00 0.00 56 1029.6
20260509084915 69 145 0.0 1.0 0.00 0.00 0.00 59 1029.6
20260509083915 68 148 1.0 4.0 0.00 0.00 0.00 60 1029.8
20260509082914 68 180 0.0 2.0 0.00 0.00 0.00 61 1029.8
20260509081914 67 133 1.0 2.0 0.00 0.00 0.00 65 1029.9
20260509081815 67 158 3.0 5.0 0.00 0.00 0.00 65 1029.9
20260509080815 67 176 0.0 2.0 0.00 0.00 0.00 64 1030.0
20260509075913 66 137 1.0 3.0 0.00 0.00 0.00 66 1030.0
20260509073915 63 180 0.0 0.0 0.00 0.00 0.00 70 1029.9
20260509072915 62 180 1.0 2.0 0.00 0.00 0.00 74 1030.1
20260509072013 60 180 0.0 1.0 0.00 0.00 0.00 80 1030.1
20260509071015 57 135 0.0 1.0 0.00 0.00 0.00 84 1030.3
20260509070014 55 126 2.0 4.0 0.00 0.00 0.00 87 1030.4
20260509065915 55 161 2.0 3.0 0.00 0.00 0.00 88 1030.3
20260509064916 52 109 2.0 5.0 0.00 0.00 0.00 93 1030.3
20260509064015 50 172 2.0 3.0 0.00 0.00 0.00 93 1030.3
20260509063015 48 180 1.0 2.0 0.00 0.00 0.00 93 1030.1
20260509062916 48 180 2.0 3.0 0.00 0.00 0.00 93 1030.1
20260509061916 47 90 0.0 0.0 0.00 0.00 0.00 93 1030.1
20260509061014 47 90 3.0 6.0 0.00 0.00 0.00 93 1030.0
20260509060015 46 94 3.0 4.0 0.00 0.00 0.00 93 1030.1
20260509055014 46 166 3.0 5.0 0.00 0.00 0.00 93 1030.1
20260509053015 45 90 0.0 1.0 0.00 0.00 0.00 93 1029.9
20260509052114 45 180 1.0 2.0 0.00 0.00 0.00 93 1029.7
20260509052015 45 180 0.0 1.0 0.00 0.00 0.00 93 1029.8
20260509050015 44 90 0.0 2.0 0.00 0.00 0.00 92 1029.3
20260509045014 44 180 0.0 0.0 0.00 0.00 0.00 92 1029.4
20260509043016 44 180 2.0 4.0 0.00 0.00 0.00 92 1029.2
20260509042914 44 129 2.0 4.0 0.00 0.00 0.00 92 1029.3
20260509041917 44 180 1.0 3.0 0.00 0.00 0.00 92 1029.2
20260509040916 44 180 3.0 4.0 0.00 0.00 0.00 92 1029.1
20260509035915 44 160 2.0 3.0 0.00 0.00 0.00 91 1029.2
20260509035014 44 133 2.0 3.0 0.00 0.00 0.00 91 1029.2
20260509034113 44 157 2.0 3.0 0.00 0.00 0.00 91 1029.2
20260509032117 44 172 1.0 2.0 0.00 0.00 0.00 91 1029.2
20260509031114 44 99 3.0 5.0 0.00 0.00 0.00 90 1029.4
20260509030115 44 169 2.0 4.0 0.00 0.00 0.00 90 1029.5
20260509030015 44 180 3.0 4.0 0.00 0.00 0.00 90 1029.6
20260509024113 44 180 2.0 3.0 0.00 0.00 0.00 89 1029.7
20260509023115 45 90 1.0 2.0 0.00 0.00 0.00 89 1029.6
20260509022116 45 180 2.0 5.0 0.00 0.00 0.00 89 1029.5
20260509020114 45 180 2.0 2.0 0.00 0.00 0.00 88 1029.5
20260509015213 45 90 1.0 2.0 0.00 0.00 0.00 88 1029.6
20260509013216 45 178 3.0 4.0 0.00 0.00 0.00 88 1029.7
20260509012217 46 90 0.0 0.0 0.00 0.00 0.00 88 1029.7
20260509011215 46 90 0.0 1.0 0.00 0.00 0.00 88 1029.6
20260509010214 46 172 3.0 4.0 0.00 0.00 0.00 87 1029.8
20260509010114 46 180 1.0 2.0 0.00 0.00 0.00 87 1029.9
20260509005115 46 174 3.0 5.0 0.00 0.00 0.00 87 1029.7
20260509005015 46 180 3.0 4.0 0.00 0.00 0.00 87 1029.8
20260509004015 45 180 1.0 2.0 0.00 0.00 0.00 86 1029.8
20260509003113 45 180 0.0 1.0 0.00 0.00 0.00 85 1029.8
20260509002115 46 180 0.0 0.0 0.00 0.00 0.00 85 1029.8
20260509001116 46 135 1.0 2.0 0.00 0.00 0.00 84 1029.8
20260508235116 46 180 1.0 3.0 0.00 0.00 0.00 82 1029.7
20260508234115 47 90 0.0 0.0 0.00 0.00 0.00 82 1029.7
20260508233213 47 90 0.0 0.0 0.00 0.00 0.00 82 1029.8
20260508233115 47 90 0.0 0.0 0.00 0.00 0.00 82 1029.9
20260508232116 48 180 0.0 0.0 0.00 0.00 0.00 82 1029.8
20260508231115 48 172 1.0 2.0 0.00 0.00 0.00 80 1029.8
20260508230114 48 172 0.0 1.0 0.00 0.00 0.00 80 1029.9
20260508225214 49 180 0.0 0.0 0.00 0.00 0.00 79 1029.7
20260508223215 49 180 0.0 2.0 0.00 0.00 0.00 78 1029.9
20260508222314 50 124 2.0 3.0 0.00 0.00 0.00 78 1029.7
20260508220315 50 180 4.0 5.0 0.00 0.00 0.00 76 1029.8
20260508220215 50 169 3.0 5.0 0.00 0.00 0.00 76 1029.8
20260508215221 50 90 0.0 1.0 0.00 0.00 0.00 75 1029.8
20260508214222 51 137 2.0 3.0 0.00 0.00 0.00 75 1029.7
20260508211322 52 169 1.0 3.0 0.00 0.00 0.00 73 1030.0
20260508210324 52 158 2.0 4.0 0.00 0.00 0.00 72 1029.9
20260508205223 53 119 2.0 3.0 0.00 0.00 0.00 71 1029.7
20260508204321 53 90 1.0 2.0 0.00 0.00 0.00 71 1029.7
20260508203321 53 92 1.0 3.0 0.00 0.00 0.00 70 1029.7
20260508202322 53 106 0.0 2.0 0.00 0.00 0.00 70 1029.6
20260508201322 53 90 1.0 2.0 0.00 0.00 0.00 69 1029.6
20260508200322 53 90 0.0 1.0 0.00 0.00 0.00 67 1029.5
20260508195421 54 90 0.0 1.0 0.00 0.00 0.00 66 1029.5
20260508194423 54 172 2.0 3.0 0.00 0.00 0.00 65 1029.4
20260508193422 55 90 0.0 1.0 0.00 0.00 0.00 64 1029.4
20260508192423 55 180 1.0 2.0 0.00 0.00 0.00 62 1029.2
20260508190520 57 180 2.0 3.0 0.00 0.00 0.00 62 1029.0
20260508185523 57 180 1.0 2.0 0.00 0.00 0.00 62 1028.8
20260508184522 58 180 0.0 1.0 0.00 0.00 0.00 60 1028.7
20260508183523 59 180 0.0 2.0 0.00 0.00 0.00 56 1028.7
20260508182544 59 180 0.0 2.0 0.00 0.00 0.00 54 1028.6
20260508181622 60 180 0.0 0.0 0.00 0.00 0.00 52 1028.6
20260508180621 61 180 0.0 2.0 0.00 0.00 0.00 51 1028.4
20260508175624 61 176 1.0 3.0 0.00 0.00 0.00 51 1028.4
20260508174522 62 180 0.0 1.0 0.00 0.00 0.00 49 1028.2
20260508172521 63 180 0.0 1.0 0.00 0.00 0.00 48 1028.2
20260508171522 63 180 1.0 3.0 0.00 0.00 0.00 48 1028.1
20260508170522 63 180 0.0 3.0 0.00 0.00 0.00 49 1028.1
20260508170423 63 180 0.0 0.0 0.00 0.00 0.00 49 1028.0
20260508165421 64 180 0.0 1.0 0.00 0.00 0.00 47 1028.0
20260508164421 64 126 2.0 3.0 0.00 0.00 0.00 47 1028.1
20260508162421 64 180 1.0 2.0 0.00 0.00 0.00 47 1028.0
20260508161422 64 180 2.0 6.0 0.00 0.00 0.00 46 1028.1
20260508160422 65 115 1.0 2.0 0.00 0.00 0.00 45 1028.1
20260508155423 66 125 2.0 3.0 0.00 0.00 0.00 45 1028.2
20260508154422 67 180 0.0 0.0 0.00 0.00 0.00 45 1028.2
20260508153420 68 166 3.0 4.0 0.00 0.00 0.00 44 1028.2
20260508153321 68 180 4.0 5.0 0.00 0.00 0.00 43 1028.2
20260508151420 70 170 2.0 7.0 0.00 0.00 0.00 43 1028.2
20260508150421 69 180 1.0 4.0 0.00 0.00 0.00 46 1028.2
20260508145520 66 118 1.0 2.0 0.00 0.00 0.00 48 1028.3
20260508144522 64 114 1.0 2.0 0.00 0.00 0.00 50 1028.4